User: anonymous   Login
Location: Unspecified
(0.0000°N, 0.0000°E)
Time: 00:24:08
(UTC+00:00)
Language:

Eole - Orbit

View from above orbital plane
View from above orbital plane
View from above satellite
View from above satellite

Ground track
Ground track

The orbit data is extracted from the following two-line orbital elements,

1  5435U 71071A   18323.71484925 -.00000064  00000-0  29262-4 0  9996
2  5435  50.1419  75.0363 0110645 195.9706 163.7723 14.55144654493382
Epoch (UTC): 19 November 2018 17:09:22
Eccentricity: 0.0110645
inclination: 50.1419°
perigee height: 630 km
apogee height: 787 km
right ascension of ascending node: 75.0363°
argument of perigee: 195.9706°
revolutions per day: 14.55144654
mean anomaly at epoch: 163.7723°
orbit number at epoch: 49338

The dashed part of the orbit path shows where the satellite is in the earth's shadow,  

DLR